Location: Dalton Gardens
(47.7327°N, 116.7697°W)
Time: 05:56:20
(UTC+00:00)

BlueWalker 3 - Pass Details

Date: 29 November 2022
Orbit: 499 x 517 km, 53.2° (Epoch: 28 January)

Event Time Altitude Azimuth Distance (km) Brightness Sun altitude
Rises 00:58:18 0° 248° (WSW) 2,628 8.0 -9.8°
Reaches altitude 10° 01:00:31 10° 250° (WSW) 1,740 6.3 -10.1°
Maximum altitude 01:04:26 71° 335° (NNW) 545 2.1 -10.8°
Enters shadow 01:07:28 16° 58° (ENE) 1,384 3.5 -11.2°
